Погода Туапсе

Хотите узнать прогноз погоды Туапсе? Тогда Вам сюда: Погода Туапсе

Поиск расширенной информации на нашем сайте:

Полезная информация:

Новости сайта



02.01.2020
Опубликован Долгосрочный прогноз погоды по городам России и ближнего зарубежья на январь 2020 года.
Карты: Прогноз на январь и февраль 2020 года, Сравнение прогнозируемой аномалии приземной температуры воздуха на январь 2020 года по разным моделям.




Погода Туапсе - сегодня

Время (UTC), дата Ветер
(°,м/с) 
Видим.   Явления Облачность Т
(°С)
Тd
(°С)
f(%) Тe
(°С)
Pmin
(гПа)
dP
(гПа)
Po
(мм)
O2
(г/м3)
Тmin Tmax R s Состояние
почвы
18 24.01.20 130 (ЮВ) 4{10}  10 км  {ливн. осадки}  10/10 1000 м кучево-дожд. 
[Cb cap]
+3.2 -3.7 61 +1  1030.5  1.1  767  306           
21 24.01.20 160 (Ю) 5-11{11}  10 км    10/10 1000 м кучево-дожд. 
[Cb cap]
+4.5 -2.6 60 +2  1030.4  767  304           
00 25.01.20 150 (ЮВ) 7-13{15}  10 км    10/10 1000 м кучево-дожд. 
[Cb cap]
+3.2 +0.4 82 1030  -0.5  767  305           
03 25.01.20 120 (ЮВ) 4000 м  слаб. ливневой дождь  10/10 600 м кучево-дожд. 
[Cb cap]
+1.6 -1 83 -1  1029.1  -0.9  766  307  +1.4       
06 25.01.20 130 (ЮВ) 8-14{15}  10 км  слаб. ливневой дождь  10/10 600 м кучево-дожд. 
[Cb cap]
+3.9 -0.2 75 +1  1028.9  -0.1  766  304           
09 25.01.20 150 (ЮВ) 9-15{17}  10 км  слаб. ливневой дождь  10/10 600 м кучево-дожд. 
[Cb cap]
+4.8 +0.6 74 +1  1028.2  -0.7  765  303           
12 25.01.20 140 (ЮВ) 9-15{17}  20000 м  {ливн. осадки}  9/8 1000 м кучево-дожд., средняя 
[Cb cap|Ac trans]
+6 +0.7 69 +3  1026.2  -2  764  301           
15 25.01.20 140 (ЮВ) 8-14  10 км    10/10 1000 м кучево-дожд. 
[Cb cap]
+6.3 +1.5 71 +3  1025.1  -1  763  300    +6.4     
18 25.01.20 150 (ЮВ) 7-14{15}  10 км  {ливн. осадки}  9/9 1000 м кучево-дожд. 
[Cb cap]
+6.6 +1.4 69 +4  1024.7  -0.4  763  300           
21 25.01.20 140 (ЮВ) 7-13{14}  10 км    9/8 1000 м кучево-дожд., средняя 
[Cb cap|Ac trans]
+6.2 +0.1 65 +4  1024.6  -0.1  763  301           
00 26.01.20 140 (ЮВ) 8-14{15}  10 км    10/8 1000 м кучево-дожд., средняя, верхняя 
[Cb cap|Ac trans|Ci fib]
+6.6 -0.3 61 +4  1024.2  -0.4  762  300           
03 26.01.20 140 (ЮВ) 10 км  {ливн. осадки}  10/8 1000 м кучево-дожд., средняя, верхняя 
[Cb cap|Ac trans|Ci fib]
+6.7 -0.9 58 +4  1023.9  -0.3  762  300  +6    0.0     
06 26.01.20 130 (ЮВ) 6-12{13}  20000 м  {ливн. осадки}  10/6 1000 м кучево-дожд., средняя, верхняя 
[Cb cap|Ac trans|Ci fib]
+7.1 -1.8 53 +5  1024.9  763  300           
09 26.01.20 140 (ЮВ) 7-12{14}  20000 м    9/5 1000 м средняя, верхняя 
[Cu Sc|Ac trans|Ci fib]
+8.1 -3.9 42 +6  1026  1.1  764  299           
12 26.01.20 140 (ЮВ) 7-12{14}  20000 м  в посл. час ливневой дождь  10/8 1000 м кучево-дожд., средняя, верхняя 
[Cb cap|Ac trans|Ci fib]
+8 +0.3 58 +6  1025.4  -0.6  763  299           
15 26.01.20 130 (ЮВ) 4{14}  10 км    9/6 1000 м кучево-дожд., средняя, верхняя 
[Cb cap|Ac trans|Ci fib]
+7.8 +0.3 59 +7  1025.9  0.5  764  299    +8.5  0.0     
18 26.01.20 130 (ЮВ) 5-12{12}  10 км    9/8 1000 м средняя, верхняя 
[Sc|Ac trans|Ci fib]
+8.3 -0.5 54 +7  1026.5  0.6  764  299           
21 26.01.20 130 (ЮВ) 5{12}  10 км    9/6 1000 м кучево-дожд., верхняя 
[Cb cap|Ci fib]
+8.5 +2.7 67 +7  1026.6  0.1  764  298           
00 27.01.20 150 (ЮВ) 5{10}  10 км    10/8 1000 м кучево-дожд., верхняя 
[Cb cap|Ci]
+8.6 +3.1 68 +7  1026.9  0.3  764  298           
03 27.01.20 130 (ЮВ) 10 км    10/8 1000 м кучево-дожд., верхняя 
[Cb cap|Ci]
+8.4 +3.1 69 +7  1026.3  -0.6  764  298  +7.9         
06 27.01.20 140 (ЮВ) 5-10{11}  20000 м    10/8 1000 м кучево-дожд., верхняя 
[Cb cap|Ci sp]
+8.7 +2.6 65 +7  1027  0.7  765  298           
09 27.01.20 150 (ЮВ) 5{11}  20000 м    10/6 1000 м кучево-дожд., средняя, верхняя 
[Cb cap|Ac trans|Ci sp]
+9.1 +1.9 61 +8  1025.9  -1.1  764  298           
12 27.01.20 150 (ЮВ) 20000 м    10/5 1000 м средняя, верхняя 
[Cu Sc|Ac trans|Ci sp]
+9.1 +4.4 72 +8  1023.7  -2.1  762  297           
15 27.01.20 100 (В) 10 км    9/3 1000 м верхняя 
[Cu Sc|Ci sp]
+7.8 +4.2 78 +8  1022.6  -1.2  761  298    +9.5       
18 27.01.20 040 (СВ) 10 км    10/8 1000 м верхняя 
[Sc|Ci sp]
+5.9 +2 76 +7  1021.2  -1.4  760  300           
Время (UTC), дата Ветер
(°,м/с) 
Видим.   Явления Облачность Т
(°С)
Тd
(°С)
f(%) Тe
(°С)
Pmin
(гПа)
dP
(гПа)
Po
(мм)
O2
(г/м3)
Тmin Tmax R s Состояние
почвы

Для получения пояснительной информации подведите курсор к названию столбца.

ПОГОДА Туапсе - архив

Всё, что Вы хотите узнать о погоде Туапсе - удобно и подробно!

Выберите нужную дату (начиная с 1 января 2019* года) и нажмите кнопку "Найти".
Будут отображены архивные сводки погоды по пункту Туапсе, начиная с указанной даты.


Отображать данные в формате CSV (для использования в таблицах Excel)


Внимание! Наш архив погоды предназначен исключительно для личного некоммерческого использования в познавательных целях. Если Вам необходимы официальные справки о состоянии погоды (для производственных, юридических, коммерческих и т.п. целей), обращайтесь в органы Росгидромета.

*Примечание: данная дата относится к архиву по метеостанциям СССР (Россия, СНГ, Балтия).
Архив по метеостанциям Зарубежной Европы и Азии (кроме Китая) хранится 10 дней, по другим регионам земного шара (Китай, Африка, Америка, Австралия, Океания) - 1 день.

Туапсе - район местоположения метеостанции


Название, широта, долгота, высота метеостанции:
Туапсе 44.1°ш. 39.1°д. 61 м над ур. моря [Российская Федерация]

Дополнительная информация

В oтличие oт бoльшинства пoгoдных сайтoв мы публикуем пoдрoбную метеoинфoрмацию в детальнoм прoфессиoнальнoм фoрмате.

Характеристики температуры и влажнoсти вoздуха измеряются на высoте 2 м в тени вдали oт зданий и деревьев.
Скoрoсть ветра измеряется на высoте 10 м (на урoвне рoста челoвека скoрoсть ветра ниже в 1.5-2 раза). Если метеoстанция нахoдится в гoрoде или в лесу, тo скoрoсть ветра занижена на 2-4 м/с пo сравнению с oткрытым местoм. Скoрoсть ветра над акватoриями крупных рек и oзёр, а также на вершинах хoлмoв на 2-5 м/с выше, чем в oбычных услoвиях.
Атмoсфернoе давление в разных тoчках местнoсти мoжет значительнo oтличаться oт давления на метеoстанции, в зависимoсти oт услoвий рельефа (при пoдъёме на 10 м давление пoнижается примернo на 1 мм рт.ст.).